Regional Weather Roundup
Issued by NWS

Home | Current Version | Previous Version | Graphics & Text | Print | Product List | Glossary On
Versions: 1 2 3 4 5 6 7 8 9 10 11 12 13 14 15 16 17 18 19 20 21 22 23 24 25 26 27 28 29 30 31 32 33 34 35 36 37 38 39 40 41 42 43 44 45 46 47 48 49 50
110
ASUS43 KMPX 222001
RWRMN
WEATHER ROUNDUP FOR MINNESOTA
NATIONAL WEATHER SERVICE TWIN CITIES/CHANHASSEN MN
200 PM CST WED FEB 22 2017


NOTE: "FAIR" INDICATES FEW OR NO CLOUDS BELOW 12,000 FEET WITH NO
SIGNIFICANT WEATHER AND/OR OBSTRUCTIONS TO VISIBILITY. N/A MEANS
CURRENT SKY AND/OR WEATHER CONDITIONS ARE NOT AVAILABLE.

MNZ060>063-068>070-222100-
   Twin Cities Metro

CITY           SKY/WX    TMP DP  RH WIND       PRES   REMARKS
TWIN CITIES    CLOUDY    53  43  68 CALM      29.54F
ST PAUL        MOSUNNY   53  45  74 S7        29.54F
CRYSTAL        MOSUNNY   53  42  66 NE3       29.53S
BLAINE         PTSUNNY   54  46  76 CALM      29.54F
LAKEVILLE      MOSUNNY   55  45  67 CALM      29.54S
EDEN PRAIRIE   MOSUNNY   54  44  69 S5        29.52F
SOUTH ST PAUL  CLOUDY    53  42  66 CALM      29.53S
LAKE ELMO      FAIR      52  43  71 CALM      29.54F
$$
MNZ001>005-007-008-013>017-022>024-027-028-222100-
   Northwest Minnesota

CITY           SKY/WX    TMP DP  RH WIND       PRES   REMARKS
BEMIDJI        CLOUDY    33  32  96 N12       29.66S WCI  24
HALLOCK        CLOUDY    34  28  80 N13       29.81R WCI  25
ROSEAU         CLOUDY    34  27  75 N14G20    29.78S WCI  24
WARROAD        CLOUDY    34  27  75 N14       29.77S WCI  24
THIEF RVR FALL FLURRIES  33  29  85 N17       29.76R WCI  22
CROOKSTON      CLOUDY    34  34 100 N17       29.77S WCI  23
FOSSTON        CLOUDY    32  30  93 N17       29.71R FOG     WCI  21
DETROIT LAKES  LGT SNOW  34  34 100 N9        29.68R WCI  26
MOORHEAD       LGT SNOW  32  30  93 N14       29.72R WCI  22
PARK RAPIDS    LGT RAIN  37  33  85 N13       29.61R
MAHNOMEN       LGT RAIN  33  32  98 N16       29.69R WCI  22
$$
MNZ006-009>011-018-025>026-222100-
   North Central Minnesota

CITY           SKY/WX    TMP DP  RH WIND       PRES   REMARKS
BAUDETTE       CLOUDY    32  26  78 N12       29.74R WCI  23
FLAG ISLAND    CLOUDY    30  25  80 N12       29.77S WCI  21
INTL FALLS     LGT SNOW  34  31  88 N9        29.70R FOG     WCI  27
WASKISH        DRIZZLE   34  34 100 N8        29.71S WCI  27
BIG FORK       LGT RAIN  36  34  93 N9        29.66F
LONGVILLE      LGT RAIN  37  36  93 CALM      29.62R
GRAND RAPIDS   LGT RAIN  38  34  85 N9        29.63F
CRANE LAKE     CLOUDY    36  30  80 N5        29.69S
ORR            CLOUDY    36  30  80 CALM      29.63F
COOK           CLOUDY    37  34  87 N8        29.64S
WALKER         LGT RAIN  34  33  94 N12       29.62F WCI  26
$$
MNZ012-019>021-037-222100-
   Northeast Minnesota

CITY           SKY/WX    TMP DP  RH WIND       PRES   REMARKS
DULUTH         CLOUDY    43  36  76 SE7       29.58F
ELY            PTSUNNY   39  32  75 NE3       29.62S
HIBBING        CLOUDY    40  34  79 N6        29.61S
EVELETH        MOSUNNY   42  32  66 N7        29.62S
DULUTH HARBOR  PTSUNNY   37  36  93 CALM      29.62F
TWO HARBORS    PTSUNNY   43  36  75 E9        29.59F
SILVER BAY     CLOUDY    43  34  70 E6        29.60R
GRAND MARAIS     N/A     40  33  76 CALM      29.61F
G MARAIS ARPRT CLOUDY    41  28  60 N9        29.59F
$$
MNZ029>031-032-039>041-046>048-054>057-064-222100-
   West Central Minnesota

CITY           SKY/WX    TMP DP  RH WIND       PRES   REMARKS
FERGUS FALLS   LGT RAIN  36  36 100 N15       29.69R
WHEATON        CLOUDY    36  34  93 NW18G25   29.67R
MORRIS         PTSUNNY   43  39  87 NW22G29   29.62R
ALEXANDRIA     CLOUDY    47  40  76 N13       29.60R
ELBOW LAKE     CLOUDY    35  34  97 N13G21    29.63F WCI  26
WADENA         DRIZZLE   37  37 100 N12G21    29.60R
GLENWOOD       MOSUNNY   52  41  66 NW12      29.60R
APPLETON       CLOUDY    46  39  76 NW17      29.61R
BENSON         PTSUNNY   52  39  62 N18       29.62R
ORTONVILLE     CLOUDY    43  37  81 N18       29.64R
MADISON        CLOUDY    46  43  87 NW14G22   29.63R
WILLMAR        PTSUNNY   54  48  82 NW12      29.58R
$$
MNZ033>034-036-042>043-049>051-058-059-222100-
   Central Minnesota

CITY           SKY/WX    TMP DP  RH WIND       PRES   REMARKS
ST CLOUD       PTSUNNY   53  42  66 CALM      29.54F
SAUK CENTRE    MOCLDY    49  38  65 NW7       29.58R
PAYNESVILLE    PTSUNNY   51  40  64 CALM      29.55F
AITKIN         CLOUDY    45  37  76 NW7       29.58F
PINE RIVER     LGT RAIN  37  37 100 N8        29.63F
BRAINERD       CLOUDY    41  38  89 N9        29.58F
STAPLES        DRIZZLE   39  37  93 NE10      29.54F
LONG PRAIRIE   LGT RAIN  45  39  81 W20G25    29.60R
LITTLE FALLS   MOSUNNY   50  37  62 N6        29.55F
LITCHFIELD     CLOUDY    54  46  76 CALM      29.55S
BUFFALO        CLOUDY    45  43  94 CALM      29.55F FOG
MAPLE LAKE     MOSUNNY   49  45  87 SE3       29.55F
HUTCHINSON     MOSUNNY   55  49  78 NE3       29.55F
$$
MNZ037-044-045-052-053-222100-
   East Central Minnesota

CITY           SKY/WX    TMP DP  RH WIND       PRES   REMARKS
PRINCETON      SUNNY     55  43  62 NE5       29.54S
MORA           SUNNY     50  37  62 NE6       29.55F
CAMBRIDGE      SUNNY     52  41  66 NE6       29.51F
RUSH CITY      MOSUNNY   50  43  76 CALM      29.54F
MOOSE LAKE     CLOUDY    46  36  66 NE7       29.55F
HINCKLEY       FAIR      52  43  71 N9        29.54F
CLOQUET        CLOUDY    46  34  61 E9        29.57F
MCGREGOR       CLOUDY    45  37  76 NW9       29.59S
$$
MNZ071>073-080-081-089-090-097-098-222100-
   Southwest Minnesota

CITY           SKY/WX    TMP DP  RH WIND       PRES   REMARKS
MONTEVIDEO     MOSUNNY   52  46  82 NW13      29.61R
GRANITE FALLS  CLOUDY    49  46  88 W14G22    29.61R
CANBY          CLOUDY    48  42  79 NW13      29.63R
MARSHALL       SUNNY     54  48  80 N20       29.57F
REDWOOD FALLS  SUNNY     58  47  66 W14       29.55S
OLIVIA         PTSUNNY   54  46  76 W10       29.56R
PIPESTONE      SUNNY     59  39  47 W20G28    29.60R
WINDOM         SUNNY     64  43  45 W10       29.57F
WORTHINGTON    SUNNY     59  44  57 W18       29.60S
JACKSON        SUNNY     61  41  48 NW13G18   29.59F
TRACY          SUNNY     61  47  59 W8        29.57F
SLAYTON        SUNNY     58  45  62 W15       29.59S
$$
MNZ065>067-074>077-082>085-091>093-222100-
   South Central Minnesota

CITY           SKY/WX    TMP DP  RH WIND       PRES   REMARKS
MANKATO          N/A     56  46  69 NW6       29.57S
NEW ULM        SUNNY     57  46  67 W5        29.55F
ST JAMES       SUNNY     61  46  59 W6        29.57F
FAIRMONT       SUNNY     60  46  59 NW17      29.57S
GLENCOE        SUNNY     55  51  84 W3        29.54F
FARIBAULT      MOSUNNY   57  45  62 SW7       29.56R
OWATONNA       CLOUDY    57  43  58 W5        29.55R
WASECA         MOSUNNY   55  45  67 NW9       29.58R
ALBERT LEA     MOSUNNY   57  43  58 NW6       29.54S
$$
MNZ078>079-086>088-094>096-222100-
   Southeast Minnesota

CITY           SKY/WX    TMP DP  RH WIND       PRES   REMARKS
ROCHESTER      PTSUNNY   55  44  66 S5        29.54F
RED WING       MOSUNNY   54  37  54 SE6       29.53F
STANTON        MOSUNNY   57  44  59 W6        29.54R
DODGE CENTER   MOSUNNY   55  43  62 CALM      29.52F
WINONA         CLOUDY    55  39  54 N3        29.54F
AUSTIN         MOSUNNY   54  43  66 CALM      29.54F
PRESTON        CLOUDY    53  42  66 W6        29.55F
$$
ABBREVIATIONS USED IN REMARKS
   TC - TEMPERATURES IN CELSIUS
  WCI - WIND CHILL INDEX
   HX - HEAT INDEX
  VSB - VISIBILITY
$$




USA.gov is the U.S. government's official web portal to all federal, state and local government web resources and services.